Weather History for Luxor, Egypt

Change the Weather History Date:

Wednesday, October 9, 2013

  Actual Average Record
Temperature  
Mean Temperature 78 °F -  
Max Temperature 95 °F 88 °F 103 °F (2014)
Min Temperature 62 °F 62 °F 62 °F (1997)
Cooling Degree Days 14    
Growing Degree Days 28 (Base 50)    
Moisture  
Dew Point 49 °F    
Average Humidity 35    
Maximum Humidity 52    
Minimum Humidity 18    
Precipitation  
Precipitation 0.00 in 0.00 in - ()
Sea Level Pressure  
Sea Level Pressure 29.90 in    
Wind  
Wind Speed 1 mph ()    
Max Wind Speed 4 mph    
Max Gust Speed -    
Visibility 4.8 miles    
Events      
Averages and records for this station are not official NWS values.
T = Trace of Precipitation, MM = Missing Value Source: Averaged Metar Reports

Daily Weather History Graph

Daily Weather History Graph

Search for Another Location

Airport:

Trip Planner

Search our weather history database for the weather conditions in past years. The results will help you decide how hot, cold, wet, or windy it might be!

Date:

Astronomy

Oct. 09, 2013 Rise Set
Actual Time 5:44 AM EET 5:27 PM EET
Civil Twilight 5:21 AM EET 5:50 PM EET
Nautical Twilight 4:55 AM EET 6:17 PM EET
Astronomical Twilight 4:28 AM EET 6:43 PM EET
Moon 9:57 AM EET (10/9) 9:04 PM EET (10/9)
Length of Visible Light 12h 28m
Length of Day
11h 42m
Waxing Crescent, 22% of the Moon is Illuminated
Oct 9
Waxing Crescent
Oct 12
First Quarter
Oct 19
Full
Oct 27
Last Quarter
Nov 3
New

Hourly Weather History & Observations

Time (EET) Temp. Heat Index Dew Point Humidity Pressure Visibility Wind Dir Wind Speed Gust Speed Precip Events Conditions
12:00 AM 73.4 °F - 46.4 °F 38% 29.92 in - South 2.3 mph - N/A   Clear
1:00 AM 69.8 °F - 48.2 °F 46% 29.89 in - Calm Calm - N/A   Clear
2:00 AM 68 °F - 43 °F 29% 29.90 in 6 mi Calm Calm - -  
2:00 AM 68.0 °F - 42.8 °F 40% 29.89 in - Calm Calm - N/A   Clear
3:00 AM 66.2 °F - 37.4 °F 35% 29.92 in - Calm Calm - N/A   Clear
4:00 AM 64.4 °F - 37.4 °F 37% 29.92 in - Calm Calm - N/A   Clear
5:00 AM 64.4 °F - 42.8 °F 45% 29.89 in - Calm Calm - N/A   Clear
6:00 AM 62.6 °F - 42.8 °F 48% 29.92 in - Calm Calm - N/A   Clear
7:00 AM 66.2 °F - 48.2 °F 52% 29.92 in - Calm Calm - N/A   Clear
8:00 AM 73 °F - 48 °F 30% 29.95 in 6 mi Calm Calm - -  
8:00 AM 73.4 °F - 48.2 °F 41% 29.95 in - Calm Calm - N/A   Clear
9:00 AM 78.8 °F - 48.2 °F 34% 29.95 in - Calm Calm - N/A   Clear
10:00 AM 82.4 °F - 48.2 °F 30% 29.95 in - Calm Calm - N/A   Clear
11:00 AM 86.0 °F - 51.8 °F 31% 29.92 in - Calm Calm - N/A   Clear
12:00 PM 89.6 °F 88.1 °F 57.2 °F 33% 29.92 in - NNW 2.3 mph - N/A   Clear
2:00 PM 94 °F - 56 °F 18% 29.86 in 6 mi WNW 3.5 mph - -  
2:00 PM 93.2 °F 91.3 °F 55.4 °F 28% 29.86 in - WNW 3.5 mph - N/A   Clear
3:00 PM 95.0 °F 93.7 °F 57.2 °F 28% 29.86 in - WNW 2.3 mph - N/A   Clear
4:00 PM 95.0 °F 93.0 °F 55.4 °F 26% 29.86 in - Calm Calm - N/A   Clear
5:00 PM 91.4 °F 89.1 °F 53.6 °F 28% 29.86 in - Calm Calm - N/A   Clear
6:00 PM 86.0 °F 84.5 °F 55.4 °F 35% 29.86 in - Calm Calm - N/A   Clear
7:00 PM 80.6 °F 81.5 °F 60.8 °F 51% 29.89 in 3.7 mi WNW 2.3 mph - N/A   Unknown
8:00 PM 81 °F - 56 °F 32% 29.89 in 4 mi Calm Calm - -   Haze
8:00 PM 80.6 °F 80.5 °F 55.4 °F 42% 29.89 in 3.7 mi Calm Calm - N/A   Unknown
9:00 PM 78.8 °F - 48.2 °F 34% 29.92 in 3.7 mi Calm Calm - N/A   Unknown
10:00 PM 77.0 °F - 44.6 °F 32% 29.92 in 5.0 mi SSE 3.5 mph - N/A   Unknown
11:00 PM 75.2 °F - 44.6 °F 34% 29.92 in - SSE 3.5 mph - N/A   Clear